sat.trackr.live / text

‹ back to catalog

STARLINK-37095

NORAD 68237 · 2026-054F

PAYLOAD ACTIVE UNKNOWN

§ Identity

Operator
Country
US
Launch date
2026-03-17
Launch site
AFETR
Launch vehicle
Mass (kg)
RCS (m²)

Purposes: comms

External: N2YO · Heavens-Above · Gunter

§ Orbital elements

Epoch: 2026-09-19T22:52:45.298848Z

Period
93.85 min
Inclination
53.1583°
Eccentricity
0.0000861
Mean motion
15.34405752 rev/d
Perigee alt
462.1 km
Apogee alt
463.3 km
Semi-major
6,840.8 km
B*
1.3870e-3
RAAN
104.5992°
Arg perigee
38.5973°
Mean anomaly
321.5091°
Rev number
2,887

§ Raw data

STARLINK-370951 68237U 26054F   26262.95330207  .00046786  00000+0  13870-2 0  99912 68237  53.1583 104.5992 0000861  38.5973 321.5091 15.34405752 28875

JSON: /api/v1/satellites/68237 · /tle

For live sub-satellite position, see the globe view (requires WebGL).

§ Visibility from observer

Set your observer location to see the next 7 days of passes ≥ 10°. The values pass through the URL so the page stays shareable.

No JS? Fill the form by hand. The geolocation button needs JavaScript.